www.pogodaiklimat.ru

Погода и климат >> Архив погоды >> Алжир >> Chlef


ПОГОДА в Chlef

  • Прогноз погоды в Chlef
  • Монитор погоды в Chlef
  • Климат города

АРХИВ ПОГОДЫ в Chlef

Время (UTC), дата Ветер
(напр.,м/с)
 
Видим.   Явления Облачность Т
(С)
Тd
(С)
f
(%)
Тe
(С)
Тes
(С)
Комфортность P
(гПа)
Po
(гПа)
Тmin
(С)
Tmax
(С)
R
(мм)
R24
(мм)
S
(см)
09 11.08 В 6 15 км 3/3 800 м
[Cu hum Ci sp]
+28.5 +22.1 68 +37 +40 очень
душно
1018.0 1018.0
12 11.08 В 2 15 км 1/1 800 м
[Cu hum]
+32.6 +20.8 50 +40 +57 опасность
солнечного
удара
1016.6 1017.0
15 11.08 СВ 7 15 км ясно +34.5 +22.3 49 +43 +46 опасность
перегрева
1014.4 1014.0
18 11.08 С 6 15 км 5/1 900 м
[Cu med, cong Ac trans]
+31.0 +22.1 59 +40 +40 очень
душно
1014.2 1014.0 +35.6
21 11.08 СВ 3 10 км ясно +27.8 +21.8 70 +36 +36 очень
душно
1016.0 1016.0
00 12.08 В 4 10 км ясно +25.5 +19.2 68 +31 +31 очень
душно
1016.3 1016.0
03 12.08 СВ 3 10 км ясно +23.4 +18.2 73 +29 +29 душно 1015.8 1016.0
06 12.08 штиль 0 10 км ясно +23.4 +18.0 72 +29 +30 душно 1016.7 1017.0 +21.8
09 12.08 СВ 5 10 км ясно +27.7 +19.8 62 +34 +39 очень
душно
1017.8 1018.0
12 12.08 СВ 5 10 км ясно +33.0 +20.4 48 +40 +50 очень
душно
1016.0 1016.0
15 12.08 В 4 10 км 3/0
[Ci sp]
+34.8 +20.9 44 +42 +48 опасность
перегрева
1014.7 1015.0
18 12.08 С 7 10 км 5/0
[Ci sp]
+32.0 +20.3 50 +39 +39 очень
душно
1014.7 1015.0 +35.3
21 12.08 В 2 10 км 5/0
[Ci sp]
+30.4 +17.7 47 +35 +35 очень
душно
1016.1 1016.0
00 13.08 штиль 0 10 км 3/0
[Ci sp]
+27.0 +19.4 63 +33 +33 очень
душно
1015.0 1015.0
03 13.08 штиль 0 10 км ясно +25.0 +18.5 67 +30 +30 душно 1014.7 1015.0
06 13.08 штиль 0 10 км 3/3 1200 м
[Cu med, cong]
+23.7 +19.5 77 +29 +29 душно 1014.5 1015.0 +23.5
09 13.08 штиль 0 10 км ясно +30.0 +20.8 58 +37 +52 опасность
солнечного
удара
1014.6 1015.0
12 13.08 штиль 0 15 км ясно +36.5 +20.4 39 +43 +68 опасность
перегрева
1012.6 1013.0
15 13.08 С 7 15 км 3/3 900 м
[Cu med, cong]
+36.3 +22.3 45 +45 +47 опасность
перегрева
1010.6 1011.0
18 13.08 С 4 10 км ясно +34.3 +21.1 46 +42 +42 опасность
перегрева
1010.5 1011.0 +37.5
21 13.08 В 5 10 км 3/0
[Ac trans]
+31.1 +20.4 53 +38 +38 очень
душно
1011.7 1012.0
00 14.08 ЮЗ 4 10 км 5/3 800 м
[Cu med, cong Ac trans]
+29.8 +20.4 57 +37 +37 очень
душно
1011.8 1012.0
03 14.08 штиль 0 10 км 6/3 800 м
[Cu med, cong Ac trans]
+28.0 +19.7 61 +34 +34 очень
душно
1011.7 1012.0
06 14.08 штиль 0 8000 м 8/3 800 м
[Cu med, cong Ac trans]
+25.0 +21.3 80 +32 +32 очень
душно
1013.2 1013.0 +24.5
09 14.08 штиль 0 6000 м 9/4 800 м
[Cu med, cong Ac trans]
+27.5 +21.6 70 +35 +40 очень
душно
1014.4 1014.0
12 14.08 СВ 5 8000 м 9/5 800 м
[Cu med, cong Ac trans]
+30.6 +21.8 59 +39 +41 очень
душно
1013.4 1013.0
15 14.08 СВ 7 8000 м 8/5 800 м
[Cu med, cong Ac trans]
+36.0 +21.6 43 +44 +44 опасность
перегрева
1011.0 1011.0
18 14.08 С 6 10 км 5/4 800 м
[Cu med, cong Ac trans]
+37.0 +21.1 40 +44 +44 опасность
перегрева
1010.5 1011.0 +39.0
21 14.08 СВ 5 10 км 5/4 800 м
[Cb cap Ac trans]
+32.5 +19.8 47 +38 +38 очень
душно
1013.1 1013.0
00 15.08 СВ 4 10 км 3/3 800 м
[Cu med, cong]
+30.0 +21.1 59 +38 +38 очень
душно
1014.1 1014.0
03 15.08 штиль 0 10 км 1/1 800 м
[Cu med, cong]
+28.0 +21.0 66 +35 +35 очень
душно
1014.3 1014.0
06 15.08 СВ 3 8000 м 5/0
[Ac trans Ci sp]
+27.0 +18.5 60 +32 +32 очень
душно
1014.5 1015.0 +26.0
09 15.08 В 6 10 км 4/0
[Ac trans Ci sp]
+35.0 +18.4 38 +39 +43 очень
душно
1014.5 1015.0
12 15.08 В 2 10 км 3/0
[Ci sp]
+40.0 +17.4 27 +43 +60 опасность
перегрева
1013.6 1014.0
15 15.08 С 7 10 км 3/3 900 м
[Cu med, cong]
+41.5 +20.6 30 +47 +49 опасность
перегрева
1011.8 1012.0
18 15.08 С 6 10 км 3/3 900 м
[Cu med, cong]
+39.0 +18.5 30 +43 +43 опасность
перегрева
1011.3 1011.0 +42.2
21 15.08 штиль 0 10 км 5/5 900 м
[Cu med, cong]
+35.0 +17.5 36 +39 +39 очень
душно
1013.3 1013.0
00 16.08 ЮЗ 2 9000 м 8/5 900 м
[Cu med, cong]
+29.7 +19.2 53 +35 +35 очень
душно
1014.9 1015.0
03 16.08 З 5 10 км 5/5 900 м
[Cu med, cong]
+28.3 +18.6 56 +33 +33 очень
душно
1015.4 1015.0
06 16.08 ЮЗ 5 10 км ясно +24.5 +22.3 88 +32 +32 очень
душно
1016.6 1017.0 +24.1
09 16.08 ЮЗ 5 8000 м ясно +28.3 +21.4 66 +36 +41 очень
душно
1017.6 1018.0
12 16.08 Ю 4 10 км ясно +33.8 +21.8 50 +42 +55 опасность
перегрева
1016.4 1016.0
15 16.08 СЗ 4 10 км ясно +37.4 +20.8 38 +44 +50 опасность
перегрева
1014.4 1014.0
18 16.08 С 10 10 км 3/0
[Ci sp]
+30.8 +21.2 57 +39 +39 очень
душно
1014.1 1014.0 +38.6
21 16.08 штиль 0 10 км ясно +28.8 +19.7 58 +35 +35 очень
душно
1016.0 1016.0
00 17.08 штиль 0 10 км ясно +24.8 +22.3 86 +32 +32 очень
душно
1016.4 1016.0
03 17.08 штиль 0 10 км ясно +24.6 +20.7 79 +31 +31 очень
душно
1015.7 1016.0
06 17.08 штиль 0 10 км ясно +23.5 +21.2 87 +30 +30 очень
душно
1017.0 1017.0 +23.1
09 17.08 штиль 0 10 км ясно +28.8 +21.8 66 +37 +52 опасность
солнечного
удара
1017.3 1017.0
12 17.08 СЗ 4 10 км ясно +33.8 +22.3 51 +43 +55 опасность
перегрева
1016.4 1016.0
15 17.08 СЗ 7 15 км ясно +34.4 +19.7 42 +40 +43 очень
душно
1014.3 1014.0
18 17.08 С 6 10 км ясно +32.0 +21.0 52 +39 +39 очень
душно
1013.8 1014.0 +35.0
21 17.08 штиль 0 10 км ясно +28.2 +22.1 70 +37 +37 очень
душно
1014.8 1015.0
00 18.08 штиль 0 10 км ясно +26.0 +21.6 77 +33 +33 очень
душно
1015.4 1015.0
03 18.08 штиль 0 10 км ясно +25.3 +21.1 78 +32 +32 очень
душно
1014.9 1015.0
06 18.08 штиль 0 10 км ясно +23.5 +21.2 87 +30 +30 очень
душно
1015.3 1015.0 +23.4

 

Местоположение метеостанции Chlef (Алжир): широта 36.22 долгота 1.33 высота над уровнем моря 144 м.

В архиве по умолчанию представлена погода в Chlef за последнюю неделю. Архивные данные за месяц целиком и за предыдущие месяцы, начиная с января 2011 года, Вы можете получить, выбрав интересующий диапазон дат из раскрывающегося списка и нажав кнопку "Ввод!".

Внимание! Время в таблицах - всемирное. Для получения местного времени необходимо прибавить поправку, которая в Chlef равна 1 ч.

Смотрите также архив погоды в соседних городах и на ближайших метеорологических станциях:

Погода в Tenes (Алжир) (31 км)
Погода в Miliana (Алжир) (81 км)
Погода в Relizane (Алжир) (89 км)
Погода в Tiaret (Алжир) (98 км)
Погода в Mostaganem Ville (Алжир) (115 км)
Погода в Medea (Алжир) (126 км)
Погода в Ksar Chellala (Алжир) (147 км)
Погода в Arzew (Алжир) (151 км)
Погода в Mascara Ghriss (Алжир) (154 км)
Погода в Alger (Алжир) (170 км)

Пояснения к столбцам:

Ветер - указаны скорость ветра в м/с - средняя за 10 мин, порывы в срок и между сроками (в фигурных скобках) и направление, откуда дует ветер: С - северный, СВ - северо-восточный, В - восточный, ЮВ - юго-восточный, Ю - южный, ЮЗ - юго-западный, З - западный, СЗ - северо-западный.
Видимость - горизонтальная дальность видимости в метрах или километрах. При видимости от 1 до 10 км при отсутствии осадков обычно наблюдается дымка, при ухудшении видимости до 1 км и менее - туман. В сухую погоду видимость может ухудшаться дымом, пылью или мглою.
Явления - указаны атмосферные явления, наблюдавшиеся в срок или в последний час перед сроком; фигурными скобками обозначены явления, наблюдавшиеся между сроками (за 1-3 часа до срока); квадратными скобками обозначены град или гололедные отложения с указанием их диаметра в мм.
Облачность - указаны через наклонную черту общая и нижняя облачность в баллах и высота нижней границы облаков в метрах; квадратными скобками обозначены формы облаков: Ci - перистые, Cs - перисто-слоистые, Cc - перисто-кучевые, Ac - высококучевые, As - высокослоистые, Sc - слоисто-кучевые, Ns - слоисто-дождевые, Cu - кучевые, Cb - кучево-дождевые. Подробнее классификацию облаков см. в Атласе облаков (PDF).
T - Температура воздуха - температура, измеренная на высоте 2 м над землей.
Td - Температура точки росы - температура, при понижении до которой содержащийся в воздухе водяной пар достигнет насыщения.
f - Относительная влажность воздуха - влажноcть воздуха, измеренная на высоте 2 м над землей.
Te - Эффективная температура - температура, которую ощущает одетый по сезону человек в тени. Характеристика душности погоды. При расчете учитывается влияние влажности воздуха и скорости ветра на теплоощущения человека.
Tes - Эффективная температура на солнце - температура, которую ощущает человек, с поправкой на солнечный нагрев. Характеристика знойности погоды. Зависит от высоты солнца над горизонтом, облачности и скорости ветра. Ночью, в пасмурную погоду, а также при ветре 12 м/с и более поправка равна нулю.
P - Атмосферное давление - приведенное к уровню моря атмосферное давление.
Po - Атмосферное давление - измеренное на уровне метеостанции атмосферное давление.
Tmin - Минимальная температура - минимум температуры воздуха на высоте 2 м над землей.
Tmax - Максимальная температура - максимум температуры воздуха на высоте 2 м над землей.
R - Количество осадков - Количество выпавших осадков за период времени, мм. При наведении курсора мыши на число - период времени, за который выпало указанное количество осадков.
R24 - Количество осадков - Количество выпавших осадков за 24 часа, мм.
S - Снежный покров - Высота снежного покрова, см. При наведении курсора мыши на число - состояние снежного покрова и степень покрытия местности в баллах.